TimeCDT,TemperatureF,Dew PointF,Humidity,Sea Level PressureIn,VisibilityMPH,Wind Direction,Wind SpeedMPH,Gust SpeedMPH,PrecipitationIn,Events,Conditions,WindDirDegrees,DateUTC
12:53 AM,75.0,70.0,84,29.95,10.0,SSE,3.5,-,N/A,,Clear,150,2012-10-16 05:53:00
1:53 AM,73.9,70.0,87,29.94,10.0,South,3.5,-,N/A,,Clear,170,2012-10-16 06:53:00
2:53 AM,73.9,70.0,87,29.93,10.0,Calm,Calm,-,N/A,,Partly Cloudy,0,2012-10-16 07:53:00
3:35 AM,73.4,69.8,88,29.92,10.0,Calm,Calm,-,N/A,,Mostly Cloudy,0,2012-10-16 08:35:00
3:44 AM,73.4,69.8,88,29.92,10.0,Calm,Calm,-,N/A,,Scattered Clouds,0,2012-10-16 08:44:00
3:53 AM,73.0,70.0,90,29.91,10.0,Calm,Calm,-,N/A,,Partly Cloudy,0,2012-10-16 08:53:00
4:53 AM,73.0,70.0,90,29.90,10.0,Calm,Calm,-,N/A,,Partly Cloudy,0,2012-10-16 09:53:00
5:53 AM,73.9,70.0,87,29.90,10.0,Calm,Calm,-,N/A,,Clear,0,2012-10-16 10:53:00
6:53 AM,72.0,69.1,91,29.90,10.0,Calm,Calm,-,N/A,,Clear,0,2012-10-16 11:53:00
7:53 AM,73.0,70.0,90,29.90,9.0,Calm,Calm,-,N/A,,Clear,0,2012-10-16 12:53:00
8:53 AM,78.1,72.0,81,29.91,9.0,SSW,4.6,-,N/A,,Partly Cloudy,210,2012-10-16 13:53:00
9:53 AM,82.0,73.0,74,29.91,10.0,South,10.4,-,N/A,,Clear,180,2012-10-16 14:53:00
10:53 AM,84.9,70.0,61,29.91,10.0,South,10.4,-,N/A,,Partly Cloudy,180,2012-10-16 15:53:00
11:53 AM,89.1,66.9,48,29.90,10.0,South,15.0,19.6,N/A,,Partly Cloudy,170,2012-10-16 16:53:00
12:53 PM,89.1,66.9,48,29.88,10.0,SE,9.2,-,N/A,,Scattered Clouds,140,2012-10-16 17:53:00
1:53 PM,90.0,64.0,42,29.84,10.0,South,6.9,-,N/A,,Partly Cloudy,170,2012-10-16 18:53:00
2:53 PM,90.0,64.0,42,29.79,10.0,South,8.1,18.4,N/A,,Scattered Clouds,170,2012-10-16 19:53:00
3:53 PM,90.0,64.9,43,29.78,10.0,SE,15.0,-,N/A,,Clear,130,2012-10-16 20:53:00
4:53 PM,87.1,66.0,49,29.76,10.0,SSE,12.7,-,N/A,,Clear,150,2012-10-16 21:53:00
5:53 PM,86.0,66.0,51,29.76,10.0,SE,13.8,-,N/A,,Clear,130,2012-10-16 22:53:00
6:53 PM,81.0,68.0,65,29.77,10.0,SE,9.2,-,N/A,,Clear,140,2012-10-16 23:53:00
7:53 PM,79.0,69.1,72,29.77,10.0,SE,8.1,-,N/A,,Clear,140,2012-10-17 00:53:00
8:53 PM,77.0,70.0,79,29.80,10.0,SE,3.5,-,N/A,,Clear,130,2012-10-17 01:53:00
9:53 PM,75.9,70.0,82,29.81,10.0,SE,5.8,-,N/A,,Clear,130,2012-10-17 02:53:00
10:53 PM,75.0,70.0,84,29.82,10.0,SE,4.6,-,N/A,,Clear,140,2012-10-17 03:53:00
11:53 PM,73.9,69.1,85,29.81,10.0,SSE,5.8,-,N/A,,Clear,160,2012-10-17 04:53:00